{"data":{"norad_id":54663,"intl_designator":"2022-166X","name":"ONEWEB-0597","alt_names":[],"object_type":"PAYLOAD","status":"ACTIVE","operator":null,"country":"UK","launch_date":"2022-12-08","launch_site_code":"AFETR","launch_vehicle":null,"mission":null,"orbit_class":"UNKNOWN","rcs_meters":null,"size_class":null,"mass_kg":null,"dimensions":null,"purposes":["comms"],"wikipedia_slug":null,"has_3d_model":false,"image_url":null,"decayed_at":null,"tle_current":{"epoch":"2026-09-19T16:20:46.177728Z","epoch_age_seconds":96584,"freshness":"FRESH","line1":"1 54663U 22166X   26262.68109002  .00000083  00000+0  17026-3 0  9994","line2":"2 54663  87.9277 225.1764 0002140  81.8449 278.2927 13.21826901184029","mean_motion":13.21826901,"eccentricity":0.000214,"inclination_deg":87.9277,"raan_deg":225.1764,"arg_perigee_deg":81.8449,"mean_anomaly_deg":278.2927,"bstar":0.00017026,"rev_number":18402,"period_min":108.94013421202,"perigee_km":1176.1329750038,"apogee_km":1179.3668946119,"semimajor_km":7555.8869348078,"source":"CELESTRAK","updated_at":"2026-09-20T09:00:44.745474Z"}}}